Location: Laterina
(43.5167°N, 11.7167°E)
Time: 15:51:03
(UTC+00:00)

Meteor 2-5 Rocket - Pass Details

Date: 24 September 2020
Orbit: 833 x 912 km, 81.2° (Epoch: 25 October)

Event Time Altitude Azimuth Distance (km) Brightness Sun altitude
Rises 18:06:13 0° 357° (N) 3,434 7.0 -11.7°
Reaches altitude 10° 18:08:52 10° 7° (N) 2,505 6.2 -12.1°
Maximum altitude 18:14:02 34° 72° (ENE) 1,394 4.4 -13.0°
Enters shadow 18:18:08 15° 130° (SE) 2,181 5.3 -13.8°
